SHIYAN 20A DEB, 55716

Orbit data source: Space-Track

SHIYAN 20A DEB, 55716 is space debris in LEO originally from a launch on Mon, 12 Dec 2022 UTC launched from the Jiuquan Satellite Launch Center, China (JSC). Debris objects in space refer to the collection of defunct objects orbiting the Earth. Examples of debris include non-operational satellites, rocket bodies, and fragments generated from explosions, collisions, or faulty payload assembly.

Loading next visibility...
Identifier
55716, 2022-169E
Orbit
LEO
Country
Flag of CNCN / PRC
Related business
Manufacturer
SAST
Mission
Spacecraft
Bus & Motor
Unknown
Mass
~0 kg wet, ~0 kg dry
Launch date (UTC)
2022-12-12 (4 years ago)
Launch vehicle
Unknown
Launch site
Jiuquan Satellite Launch Center, China (JSC)
Object type
Payload
Rocket body
Debris
Shape & HBR
Unknown shape, 0.1 m
Radar Cross Section
Medium (>0.1 m² and <1 m²)

Expand to show TLE details & history
Last TLE update: 3 days ago

TLE from 3 days ago
0 SHIYAN 20A DEB
1 55716U 22169E   26170.41849400  .00000413  00000-0  20087-3 0  9998
2 55716  59.9934 221.2251 0007472 170.0728 190.0458 14.32924113173294
Epoch: 2026-06-19T10:02Z
TLE epoch observation values (Epoch: 2026-06-19T10:02:37.881Z)
Latitude
0.00001°
Longitude
162.91952°
Altitude
788.775 km
Speed
7.457 km/s
True Right ascension
14h 44m 54s
True Declination
0° 00' 00"
Sunlit
Object was in full shadow at epoch
Visualization orbit readout
Latitude
Unknown
Longitude
Unknown
Altitude
Unknown
Speed
Unknown
Apparent Right ascension
Unknown
Apparent Declination
Unknown
Sunlit
N/A
Visualization observer readout
Local Sidereal Time
21:29:56
Azimuth
Unknown
Elevation
Unknown
Doppler factor
Unknown
Orbital elements
Apogee altitude
786.559 km
Perigee altitude
775.86 km
Semi-major axis
7,159.347 km
Eccentricity
0.00075
Inclination
59.9934°
RAAN
221.2251°
Arg. of periapsis
170.0728°
True anomaly
190.03088°
Mean anomaly
190.0458°
Eccentric anomaly
190.03834°
Mean motion
3.58289 °/min
Orbital period
100.48 mins
BSTAR
0.00020087
Loading maneuver chart data...
Computing Atmospheric mass density...
Loading historical data...
Loading historical data...
Loading historical data...
Loading historical data...
Loading historical data...
Loading historical data...
Loading historical data...
Other satellites on launch #169 in the year 2022 (2022-12-12 UTC)

Documentation

Showing up to 5 results
|